• în Republica Moldova
  • Lista ţărilor
  • Pe 7 zile
  • Temperatura apei
  • Hartă satelitară
  • Meteo pe hartă
  • Widget-uri
  • user-avatar
    Intrare

    Meteo pe oră la Malanje

    Astăzi, 13 Decembrie, Miercuri

    Timp Temperatura Precipitaţii Vânt Presiune Umiditate
    00:00 +20°C° 0 mm 1 m/s 665 mmHg 96%
    01:00 +19°C° 0 mm 1 m/s 665 mmHg 97%
    02:00 +19°C° 0,1 mm 1 m/s 665 mmHg 97%
    03:00 +19°C° 0,1 mm 1 m/s 665 mmHg 98%
    04:00 +18°C° 0,1 mm 2 m/s 665 mmHg 99%
    05:00 +19°C° 0 mm 2 m/s 665 mmHg 98%
    06:00 +19°C° 0 mm 2 m/s 666 mmHg 97%
    07:00 +20°C° 0 mm 2 m/s 666 mmHg 97%
    08:00 +21°C° 0 mm 2 m/s 666 mmHg 90%
    09:00 +24°C° 0 mm 2 m/s 666 mmHg 84%
    10:00 +25°C° 0 mm 2 m/s 666 mmHg 77%
    11:00 +26°C° 0,4 mm 2 m/s 666 mmHg 75%
    12:00 +27°C° 0,4 mm 2 m/s 666 mmHg 72%
    13:00 +28°C° 0,4 mm 2 m/s 665 mmHg 69%
    14:00 +27°C° 0,8 mm 2 m/s 665 mmHg 73%
    15:00 +27°C° 0,8 mm 2 m/s 664 mmHg 77%
    16:00 +26°C° 0,8 mm 2 m/s 664 mmHg 81%
    17:00 +25°C° 1 mm 1 m/s 664 mmHg 85%
    18:00 +23°C° 1 mm 1 m/s 664 mmHg 89%
    19:00 +22°C° 1 mm 1 m/s 664 mmHg 92%
    20:00 +21°C° 0,8 mm 1 m/s 665 mmHg 93%
    21:00 +21°C° 0,8 mm 1 m/s 665 mmHg 93%
    22:00 +19°C° 0,8 mm 0 m/s 666 mmHg 94%
    23:00 +21°C° 1,8 mm 1 m/s 666 mmHg 94%

    Mâine, 14 Decembrie, Joi

    Timp Temperatura Precipitaţii Vânt Presiune Umiditate
    00:00 +21°C° 1,8 mm 1 m/s 666 mmHg 95%
    01:00 +20°C° 1,8 mm 1 m/s 666 mmHg 95%
    02:00 +20°C° 0,5 mm 1 m/s 666 mmHg 96%
    03:00 +20°C° 0,5 mm 1 m/s 665 mmHg 96%
    04:00 +20°C° 0,5 mm 1 m/s 665 mmHg 96%
    05:00 +20°C° 0 mm 1 m/s 666 mmHg 96%
    06:00 +20°C° 0 mm 1 m/s 666 mmHg 96%
    07:00 +20°C° 0 mm 1 m/s 666 mmHg 95%
    08:00 +22°C° 0,1 mm 1 m/s 667 mmHg 91%
    09:00 +23°C° 0,1 mm 1 m/s 667 mmHg 87%
    10:00 +24°C° 0,1 mm 1 m/s 667 mmHg 82%
    11:00 +25°C° 0,3 mm 2 m/s 667 mmHg 78%
    12:00 +26°C° 0,3 mm 2 m/s 666 mmHg 74%
    13:00 +26°C° 0,3 mm 2 m/s 666 mmHg 69%
    14:00 +26°C° 0,5 mm 2 m/s 665 mmHg 72%
    15:00 +26°C° 0,5 mm 2 m/s 665 mmHg 75%
    16:00 +26°C° 0,5 mm 2 m/s 664 mmHg 78%
    17:00 +24°C° 0,6 mm 2 m/s 664 mmHg 84%
    18:00 +23°C° 0,6 mm 1 m/s 664 mmHg 89%
    19:00 +21°C° 0,6 mm 1 m/s 664 mmHg 95%
    20:00 +21°C° 0,5 mm 1 m/s 665 mmHg 95%
    21:00 +20°C° 0,5 mm 1 m/s 665 mmHg 95%
    22:00 +20°C° 0,5 mm 1 m/s 666 mmHg 96%
    23:00 +20°C° 0 mm 1 m/s 665 mmHg 96%

    Poimâine, 15 Decembrie, Vineri

    Timp Temperatura Precipitaţii Vânt Presiune Umiditate
    00:00 +20°C° 0 mm 1 m/s 665 mmHg 96%
    01:00 +20°C° 0 mm 1 m/s 664 mmHg 97%
    02:00 +20°C° 0,2 mm 1 m/s 664 mmHg 97%
    03:00 +19°C° 0,2 mm 1 m/s 664 mmHg 97%
    04:00 +19°C° 0,2 mm 1 m/s 663 mmHg 97%
    05:00 +20°C° 0,2 mm 1 m/s 664 mmHg 97%
    06:00 +20°C° 0,2 mm 1 m/s 664 mmHg 96%
    07:00 +21°C° 0,2 mm 1 m/s 665 mmHg 96%
    08:00 +23°C° 0,1 mm 1 m/s 665 mmHg 88%
    09:00 +25°C° 0,1 mm 1 m/s 666 mmHg 81%
    10:00 +27°C° 0,1 mm 1 m/s 666 mmHg 74%
    11:00 +27°C° 0,8 mm 1 m/s 666 mmHg 73%
    12:00 +26°C° 0,8 mm 0 m/s 665 mmHg 73%
    13:00 +27°C° 0,8 mm 0 m/s 665 mmHg 72%
    14:00 +26°C° 0,9 mm 0 m/s 664 mmHg 75%
    15:00 +25°C° 0,9 mm 0 m/s 664 mmHg 77%
    16:00 +25°C° 0,9 mm 0 m/s 663 mmHg 80%
    17:00 +23°C° 0,5 mm 0 m/s 663 mmHg 84%
    18:00 +21°C° 0,5 mm 0 m/s 663 mmHg 88%
    19:00 +20°C° 0,5 mm 0 m/s 663 mmHg 92%
    20:00 +19°C° 0,1 mm 0 m/s 664 mmHg 92%
    21:00 +19°C° 0,1 mm 0 m/s 664 mmHg 92%
    22:00 +19°C° 0,1 mm 0 m/s 665 mmHg 93%
    23:00 +18°C° 0,1 mm 0 m/s 664 mmHg 93%

    16 Decembrie, Sâmbătă

    Timp Temperatura Precipitaţii Vânt Presiune Umiditate
    00:00 +18°C° 0,1 mm 0 m/s 664 mmHg 94%
    01:00 +20°C° 0,1 mm 1 m/s 663 mmHg 94%
    02:00 +20°C° 0 mm 1 m/s 663 mmHg 95%
    03:00 +20°C° 0 mm 1 m/s 663 mmHg 96%
    04:00 +20°C° 0 mm 1 m/s 663 mmHg 96%
    05:00 +20°C° 0,1 mm 1 m/s 664 mmHg 96%
    06:00 +21°C° 0,1 mm 1 m/s 664 mmHg 96%
    07:00 +21°C° 0,1 mm 1 m/s 665 mmHg 96%
    08:00 +22°C° 0,3 mm 1 m/s 665 mmHg 93%
    09:00 +21°C° 0,3 mm 0 m/s 665 mmHg 90%
    10:00 +22°C° 0,3 mm 0 m/s 666 mmHg 87%
    11:00 +26°C° 0,4 mm 1 m/s 665 mmHg 81%
    12:00 +27°C° 0,4 mm 1 m/s 664 mmHg 75%
    13:00 +28°C° 0,4 mm 2 m/s 664 mmHg 69%
    14:00 +27°C° 1,2 mm 2 m/s 663 mmHg 76%
    15:00 +26°C° 1,2 mm 2 m/s 663 mmHg 82%
    16:00 +25°C° 1,2 mm 2 m/s 663 mmHg 89%
    17:00 +24°C° 1,1 mm 2 m/s 663 mmHg 91%
    18:00 +23°C° 1,1 mm 2 m/s 663 mmHg 93%
    19:00 +20°C° 1,1 mm 2 m/s 664 mmHg 94%
    20:00 +21°C° 0,4 mm 1 m/s 664 mmHg 95%
    21:00 +21°C° 0,4 mm 1 m/s 665 mmHg 95%
    22:00 +21°C° 0,4 mm 1 m/s 665 mmHg 95%
    23:00 +20°C° 0,6 mm 1 m/s 665 mmHg 96%

    17 Decembrie, Duminică

    Timp Temperatura Precipitaţii Vânt Presiune Umiditate
    00:00 +20°C° 0,6 mm 1 m/s 664 mmHg 96%
    01:00 +20°C° 0,6 mm 1 m/s 664 mmHg 97%
    02:00 +20°C° 0,6 mm 1 m/s 664 mmHg 97%
    03:00 +20°C° 0,6 mm 1 m/s 664 mmHg 97%
    04:00 +20°C° 0,6 mm 1 m/s 664 mmHg 97%
    05:00 +20°C° 0,3 mm 1 m/s 664 mmHg 97%
    06:00 +20°C° 0,3 mm 1 m/s 665 mmHg 96%
    07:00 +21°C° 0,3 mm 1 m/s 665 mmHg 96%
    08:00 +22°C° 0,2 mm 1 m/s 665 mmHg 91%
    09:00 +24°C° 0,2 mm 1 m/s 666 mmHg 86%
    10:00 +25°C° 0,2 mm 2 m/s 666 mmHg 81%
    11:00 +25°C° 0,6 mm 2 m/s 666 mmHg 82%
    12:00 +25°C° 0,6 mm 2 m/s 665 mmHg 82%
    13:00 +25°C° 0,6 mm 3 m/s 664 mmHg 83%
    14:00 +25°C° 0,2 mm 3 m/s 664 mmHg 82%
    15:00 +25°C° 0,2 mm 3 m/s 664 mmHg 81%
    16:00 +25°C° 0,2 mm 3 m/s 663 mmHg 81%
    17:00 +24°C° 0,2 mm 2 m/s 664 mmHg 86%
    18:00 +21°C° 0,2 mm 2 m/s 664 mmHg 92%
    19:00 +20°C° 0,2 mm 2 m/s 664 mmHg 97%
    20:00 +21°C° 0 mm 1 m/s 664 mmHg 98%
    21:00 +20°C° 0 mm 1 m/s 665 mmHg 98%
    22:00 +20°C° 0 mm 1 m/s 665 mmHg 99%
    23:00 +20°C° 0 mm 1 m/s 665 mmHg 99%

    18 Decembrie, Luni

    Timp Temperatura Precipitaţii Vânt Presiune Umiditate
    00:00 +20°C° 0 mm 1 m/s 664 mmHg 98%
    01:00 +20°C° 0 mm 1 m/s 664 mmHg 98%
    02:00 +20°C° 0 mm 1 m/s 664 mmHg 98%
    03:00 +20°C° 0 mm 1 m/s 664 mmHg 98%
    04:00 +20°C° 0 mm 1 m/s 664 mmHg 98%
    05:00 +20°C° 0 mm 1 m/s 664 mmHg 97%
    06:00 +20°C° 0 mm 1 m/s 665 mmHg 96%
    07:00 +20°C° 0 mm 1 m/s 665 mmHg 95%
    08:00 +22°C° 0 mm 1 m/s 666 mmHg 87%
    09:00 +24°C° 0 mm 1 m/s 666 mmHg 79%
    10:00 +26°C° 0 mm 1 m/s 666 mmHg 71%
    11:00 +27°C° 0 mm 1 m/s 666 mmHg 67%
    12:00 +28°C° 0 mm 2 m/s 665 mmHg 64%
    13:00 +28°C° 0 mm 2 m/s 665 mmHg 60%
    14:00 +28°C° 0,8 mm 2 m/s 664 mmHg 68%
    15:00 +27°C° 0,8 mm 2 m/s 664 mmHg 75%
    16:00 +26°C° 0,8 mm 2 m/s 663 mmHg 83%
    17:00 +25°C° 0,8 mm 2 m/s 663 mmHg 86%
    18:00 +23°C° 0,8 mm 1 m/s 664 mmHg 89%
    19:00 +21°C° 0,8 mm 1 m/s 664 mmHg 92%
    20:00 +21°C° 0,2 mm 1 m/s 664 mmHg 93%
    21:00 +21°C° 0,2 mm 1 m/s 665 mmHg 93%
    22:00 +20°C° 0,2 mm 1 m/s 665 mmHg 93%
    23:00 +20°C° 0,2 mm 1 m/s 665 mmHg 94%
    Arată mai mult